Home > Weather > Salina > Past weeks

Flag for USA Past Weather in Salina, Kansas, USA — Yesterday and Last 2 Weeks

Now
78 °F

Passing clouds.


Feels Like: 80 °F
Forecast: 72 / 96 °F
Wind: 14 mph from Southeast

Location: Salina Municipal Airport

Current Time: Jul 31, 2016 at 2:32:57 AM

Latest Report: Jul 31, 2016 at 1:53 AM


Visibility: 10 mi

Pressure: 29.85 "Hg

Humidity: 76%

Dew Point: 70 °F

Location of SalinaLocation

Past Weather in Salina — Graph

°F

Salina Temperature Yesterday

Maximum temperature yesterday: 92 °F (at 4:53 PM)
Minimum temperature yesterday: 71 °F (at 6:53 AM)
Average temperature yesterday: 81 °F

High & Low Weather Summary for the Past Weeks

 TemperatureHumidityPressure
High107 °F (Jul 22, 3:53 PM)93% (Jul 25, 7:53 AM)30.15 "Hg (Jul 25, 7:53 AM)
Low69 °F (Jul 26, 6:53 AM)24% (Jul 22, 4:53 PM)29.73 "Hg (Jul 23, 6:53 PM)
Average85 °F60%29.94 "Hg
* Reported Jul 16 12:53 AM — Jul 31 12:53 AM, Salina, Weather by CustomWeather, © 2016

Note: Actual official high and low records may vary slightly from our data, if they occured in-between our weather recording intervals... More about our weather records

Advertising

Salina Weather History for the Previous 24 Hours

Scroll right to see more
 ConditionsComfort  
Time TempWeatherWind HumidityBarometerVisibility
12:53 AM
Sun, Jul 31
79 °FOvercast.13 mph72%29.87 "Hg10 mi
11:53 PM
Sat, Jul 30
79 °FClear.10 mph72%29.88 "Hg10 mi
10:53 PM79 °FClear.8 mph72%29.89 "Hg10 mi
9:53 PM81 °FClear.8 mph65%29.87 "Hg10 mi
8:53 PM84 °FSunny.9 mph59%29.86 "Hg10 mi
7:53 PM87 °FSunny.12 mph53%29.85 "Hg10 mi
6:53 PM89 °FPassing clouds.14 mph50%29.86 "Hg10 mi
5:53 PM90 °FPartly sunny.14 mph48%29.86 "Hg10 mi
4:53 PM92 °FPassing clouds.15 mph46%29.87 "Hg10 mi
3:53 PM91 °FPassing clouds.14 mph45%29.89 "Hg10 mi
2:53 PM91 °FSunny.14 mph44%29.90 "Hg10 mi
1:53 PM89 °FSunny.10 mph45%29.93 "Hg10 mi
12:53 PM85 °FLight rain. Broken clouds.9 mph57%29.94 "Hg10 mi
11:53 AM88 °FPassing clouds.7 mph48%29.96 "Hg10 mi
10:53 AM86 °FSunny.10 mph53%29.94 "Hg10 mi
9:53 AM82 °FSunny.6 mph67%29.96 "Hg10 mi
8:53 AM76 °FScattered clouds.3 mph82%29.97 "Hg10 mi
7:53 AM73 °FPassing clouds.5 mph88%29.96 "Hg10 mi
6:53 AM71 °FPassing clouds.5 mph90%29.95 "Hg10 mi
5:53 AM72 °FOvercast.5 mph87%29.95 "Hg10 mi
4:53 AM72 °FPassing clouds.3 mph87%29.96 "Hg10 mi
3:53 AM72 °FPassing clouds.5 mph87%29.96 "Hg10 mi
2:53 AM73 °FPassing clouds.6 mph81%29.96 "Hg10 mi
Weather by CustomWeather, © 2016

See weather overviewHow to use our weather pages